00001 3.34 0.12 K0636 129.98342 73.23162 80.40970 10.58687 0.0800102 0.21432279 2.7653949 MPC 24219 4676 62 1839-1994 0.54 M-v 30 Bowell 0000 (1) Ceres 00002 4.13 0.11 K0636 114.18325 310.41822 173.14461 34.84024 0.2306445 0.21352775 2.7722550 MPC 24084 5482 63 1839-1993 0.55 M-c 28 Bowell 0000 (2) Pallas 00004 3.20 0.32 K0636 232.80490 150.30933 103.92607 7.13351 0.0890882 0.27162887 2.3613051 MPC 24219 5168 56 1841-1993 0.56 M-c 18 Bowell 0000 (4) Vesta 00005 6.85 0.15 K0636 218.31508 357.53061 141.68949 5.36902 0.1928367 0.23876050 2.5733236 0 MPO 41498 2178 100 1845-2002 0.56 M-v 38h Goffin 0000 (5) Astraea 00006 5.71 0.24 K0636 274.00517 239.53518 138.74512 14.75162 0.2016444 0.26096708 2.4251889 MPC 24219 3581 59 1869-1994 0.53 M-c 08 Bowell 0000 (6) Hebe 00007 5.51 0.15 K0636 296.29648 145.43495 259.72567 5.52730 0.2313449 0.26757160 2.3851152 MPC 24084 3313 57 1850-1993 0.57 M-c 08 Bowell 0000 (7) Iris 00008 6.49 0.28 K0636 186.46173 285.22398 110.98844 5.88636 0.1560215 0.30157336 2.2022878 0 MPO 25662 2438 102 1847-2000 0.54 M-v 38h Goffin 0000 (8) Flora 00009 6.28 0.17 K0636 74.55541 5.52296 68.97669 5.57632 0.1215658 0.26736051 2.3863705 0 MPO 25662 2131 96 1822-2001 0.54 M-v 38h Goffin 0000 (9) Metis 00010 5.43 0.15 K0636 20.72389 313.03824 283.45861 3.84184 0.1182366 0.17735391 3.1374408 0 MPC 35055 2261 104 1849-1999 0.53 M-v 38h Goffin 0000 (10) Hygiea 00012 7.24 0.22 K0636 246.56722 69.66365 235.54264 8.36308 0.2207191 0.27640919 2.3340011 0 MPO 57621 2635 86 1850-2003 0.56 M-v 38h Goffin 0000 (12) Victoria 00013 6.74 0.15 K0636 122.86239 81.26502 43.29060 16.54467 0.0856576 0.23835697 2.5762271 0 MPO 2601 946 54 1850-2000 0.77 M-v 38h Williams 0000 (13) Egeria 00014 6.30 0.15 K0636 108.94372 96.30340 86.46401 9.10753 0.1682683 0.23719372 2.5846432 0 MPO 595 1765 84 1851-2000 0.54 M-v 38h Goffin 0000 (14) Irene 00015 5.28 0.23 K0636 263.17172 97.89827 293.27358 11.73780 0.1870757 0.22933525 2.6433551 0 MPO 25662 2071 91 1851-2001 0.52 M-v 38h Goffin 0000 (15) Eunomia 00022 6.45 0.21 K0636 323.42785 356.15089 66.23763 13.71039 0.1028042 0.19864474 2.9090510 0 MPO 53552 1675 90 1852-2003 0.56 M-v 38h Goffin 0000 (22) Kalliope 00025 7.83 0.15 K0636 340.42732 90.14428 214.26794 21.58411 0.2554288 0.26510300 2.3998989 0 MPC 25716 1300 68 1853-1993 0.77 M-v 38d Goffin 0000 (25) Phocaea 00027 7.0 0.15 K0636 99.13477 356.70292 94.80880 1.58364 0.1715074 0.27396773 2.3478469 0 MPO 4876 1618 79 1853-2000 0.53 M-v 38h Goffin 0000 (27) Euterpe 00029 5.85 0.20 K0636 205.54392 63.39845 356.50563 6.09630 0.0723740 0.24140261 2.5545128 0 MPO 57621 2260 101 1825-2003 0.56 M-v 38h Goffin 0000 (29) Amphitrite 00030 7.57 0.15 K0636 169.59974 86.41553 307.87142 2.09693 0.1264669 0.27070844 2.3666545 0 MPO 62176 1395 82 1854-2003 0.55 M-v 38h Goffin 0000 (30) Urania 00032 7.56 0.15 K0636 334.87280 339.88986 220.57689 5.53044 0.0826192 0.23688490 2.5868890 1 MPC 27086 524 81 1854-1993 1.05 M-v 38d Goffin 0000 (32) Pomona 00039 6.1 0.15 K0636 354.04632 209.59565 157.17502 10.38358 0.1140793 0.21397694 2.7683738 0 MPC 30777 3843 90 1856-1996 0.52 M-v 38h Goffin 0000 (39) Laetitia 00040 7.0 0.15 K0636 162.62451 268.90480 94.30264 4.25547 0.0469208 0.28872913 2.2671259 0 MPC 31001 3339 81 1856-1996 0.52 M-v 38h Goffin 0000 (40) Harmonia 00044 7.03 0.46 K0636 269.79956 342.45711 131.60802 3.70263 0.1486035 0.26122451 2.4235953 0 MPO 3854 1410 81 1857-2000 0.52 M-v 38h Goffin 0000 (44) Nysa 00046 8.36 0.06 K0636 331.71271 176.89263 181.16862 2.34244 0.1720541 0.24565289 2.5249617 1 MPC 25186 741 82 1857-1992 0.95 M-c 08 Goffin 0000 (46) Hestia 00048 6.90 0.15 K0636 282.11157 257.76284 183.75613 6.55458 0.0748428 0.17974039 3.1096076 0 MPC 35405 712 88 1857-1999 0.55 M-v 38h Goffin 0000 (48) Doris 00052 6.31 0.18 K0636 88.52904 343.80544 128.95109 7.46440 0.1022390 0.18036785 3.1023917 MPC 24371 1231 82 1858-1994 0.80 M-c 08 Goffin 0000 (52) Europa 00053 8.81 0.15 K0636 28.46630 312.19197 143.82846 5.15414 0.2039472 0.23258902 2.6186447 1 MPO 2601 239 48 1869-2000 0.91 M-v 38h Williams 0000 (53) Kalypso 00063 7.55 0.25 K0636 303.62073 295.66376 337.94279 5.78632 0.1263233 0.26574831 2.3960123 0 MPC 35405 940 76 1861-1998 0.53 M-v 38h Goffin 0000 (63) Ausonia 00064 7.67 0.48 K0636 40.78693 179.28845 309.41693 1.30732 0.1233622 0.22428600 2.6828802 0 MPC 25033 197 45 1894-1993 0.88 M-c 08 Bowell 0000 (64) Angelina 00068 6.78 0.05 K0636 320.90318 305.38745 44.18199 7.97162 0.1852398 0.21238179 2.7822183 0 MPO 57621 1282 93 1861-2003 0.57 M-v 38h Goffin 0000 (68) Leto 00071 7.30 0.40 K0636 309.17048 267.47305 316.11368 23.25767 0.1762724 0.21561633 2.7543235 0 MPO 2601 292 41 1864-2000 0.86 M-v 38h Williams 0000 (71) Niobe 00075 8.96 0.23 K0636 318.68397 339.54182 359.48305 5.00253 0.3047530 0.22549486 2.6732831 0 MPO 73855 950 49 1864-2005 0.64 M-v 38h MPC 0000 (75) Eurydike 00079 7.96 0.25 K0636 72.16330 200.33608 206.80195 4.62262 0.1922627 0.25792402 2.4442269 MPC 22665 844 78 1863-1991 1.05 M-c 08 Goffin 0000 (79) Eurynome 00097 7.63 0.15 K0636 306.45064 268.70089 159.78059 11.78380 0.2569780 0.22615392 2.6680869 0 MPO 41498 945 66 1868-2001 0.56 M-v 38h Goffin 0000 (97) Klotho 00105 8.57 0.10 K0636 313.45095 56.56464 188.36312 21.46404 0.1764657 0.26948963 2.3737848 0 MPO 77281 768 61 1868-2005 0.54 M-v 38h Goffin 0000 (105) Artemis 00111 8.02 0.15 K0636 14.68706 165.86209 305.89704 4.92385 0.1008782 0.23588133 2.5942212 0 MPO 4876 405 52 1870-2000 0.55 M-v 38h Goffin 0000 (111) Ate 00186 8.91 0.15 K0636 323.84040 315.21972 14.87014 13.17281 0.1498400 0.27157187 2.3616355 0 MPC 36495 175 35 1878-1999 0.55 M-v 38h Goffin 0000 (186) Celuta 00196 6.54 0.15 K0636 310.28968 200.24686 72.56325 7.25752 0.0236097 0.17909113 3.1171186 0 MPO 2601 742 58 1879-2000 0.65 M-v 38h Williams 0000 (196) Philomela 00201 8.43 0.24 K0636 304.50111 181.19439 157.11920 5.75741 0.1792732 0.22476894 2.6790358 0 MPC 25716 250 49 1879-1995 0.91 M-v 38d Goffin 0000 (201) Penelope 00230 7.35 0.27 K0636 177.66507 139.10807 239.96645 9.43572 0.0611802 0.26793775 2.3829419 0 MPC 31001 797 64 1882-1996 0.53 M-v 38h Goffin 0000 (230) Athamantis 00324 6.82 0.09 K0636 94.30959 44.03708 328.05291 11.10711 0.3382894 0.22431578 2.6826427 0 MPC 31001 1129 62 1892-1997 0.53 M-v 38h Goffin 0000 (324) Bamberga 00349 5.93 0.37 K0636 276.59643 347.53894 32.49943 8.25684 0.0876718 0.19710848 2.9241469 0 MPC 31001 1414 72 1892-1996 0.53 M-v 38h Goffin 0000 (349) Dembowska 00354 6.44 0.37 K0636 42.04424 7.11540 140.49898 18.38086 0.1129920 0.21035354 2.8000740 0 MPC 31001 1700 75 1893-1997 0.55 M-v 38h Goffin 0000 (354) Eleonora 00356 8.22 0.15 K0636 290.58389 78.84677 354.86462 8.23123 0.2397679 0.21547565 2.7555222 0 MPC 30777 302 48 1893-1996 0.56 M-v 38h Goffin 0000 (356) Liguria 00451 6.65 0.19 K0636 296.19916 340.64014 89.40090 15.22080 0.0772086 0.18406468 3.0607116 0 MPO 41498 1284 76 1899-2002 0.56 M-v 38h Goffin 0000 (451) Patientia 00532 5.81 0.26 K0636 38.51781 76.89768 107.60945 16.30937 0.1787042 0.21358636 2.7717477 0 MPC 31002 2223 69 1904-1997 0.53 M-v 38h Goffin 0000 (532) Herculina 00554 8.97 0.15 K0636 272.10170 127.46069 295.55145 2.93935 0.1542700 0.26945470 2.3739899 0 MPO 77281 906 53 1896-2004 0.54 M-v 38h Goffin 0000 (554) Peraga 00704 5.94 -0.02 K0636 295.98812 95.80658 280.39627 17.29207 0.1496590 0.18403194 3.0610746 0 MPC 31002 2007 62 1910-1997 0.53 M-v 38h Goffin 0000 (704) Interamnia